| time (UTC) | temp F | wind direction | speed MPH | gust MPH | rain 1hr in | rain 24hr in | rain mn in | humidity % | barometer mb |
| 20260509044541 | 39 | 197 | 0.0 | 0.0 | 0.00 | 0.04 | 0.00 | 77 | 1008.2 |
| 20260509043046 | 40 | 197 | 0.0 | 0.0 | 0.00 | 0.04 | 0.00 | 77 | 1008.0 |
| 20260509041536 | 40 | 197 | 0.0 | 0.0 | 0.00 | 0.04 | 0.00 | 76 | 1007.8 |
| 20260509040033 | 41 | 197 | 0.0 | 0.0 | 0.00 | 0.04 | 0.04 | 76 | 1007.7 |
| 20260509034532 | 41 | 207 | 0.0 | 0.0 | 0.00 | 0.04 | 0.04 | 76 | 1007.5 |
| 20260509033032 | 41 | 207 | 0.0 | 0.0 | 0.00 | 0.04 | 0.04 | 77 | 1007.6 |
| 20260509031533 | 41 | 210 | 0.0 | 0.0 | 0.00 | 0.04 | 0.04 | 78 | 1007.4 |
| 20260509030039 | 41 | 213 | 0.0 | 0.0 | 0.00 | 0.04 | 0.04 | 79 | 1007.6 |
| 20260509024530 | 41 | 201 | 0.0 | 0.0 | 0.00 | 0.04 | 0.04 | 78 | 1007.4 |
| 20260509023028 | 42 | 201 | 0.0 | 0.0 | 0.00 | 0.04 | 0.04 | 77 | 1007.3 |
| 20260509021527 | 42 | 200 | 0.0 | 0.0 | 0.00 | 0.04 | 0.04 | 77 | 1007.1 |
| 20260509020026 | 43 | 200 | 0.0 | 0.0 | 0.00 | 0.04 | 0.04 | 76 | 1007.0 |
| 20260509014526 | 43 | 201 | 0.0 | 0.0 | 0.00 | 0.04 | 0.04 | 75 | 1007.0 |
| 20260509013042 | 43 | 189 | 0.0 | 0.0 | 0.00 | 0.04 | 0.04 | 76 | 1006.9 |
| 20260509011523 | 43 | 197 | 0.0 | 0.0 | 0.00 | 0.04 | 0.04 | 76 | 1006.8 |
| 20260509010025 | 43 | 197 | 0.0 | 0.0 | 0.00 | 0.04 | 0.04 | 76 | 1006.5 |
| 20260509004534 | 43 | 197 | 0.0 | 0.0 | 0.00 | 0.04 | 0.04 | 74 | 1006.3 |
| 20260509003017 | 44 | 197 | 0.0 | 0.0 | 0.00 | 0.04 | 0.04 | 73 | 1006.1 |
| 20260509001515 | 44 | 197 | 0.0 | 0.0 | 0.00 | 0.04 | 0.04 | 75 | 1005.9 |
| 20260509000014 | 44 | 197 | 0.0 | 0.0 | 0.00 | 0.04 | 0.04 | 75 | 1005.7 |
| 20260508234512 | 44 | 197 | 0.0 | 0.0 | 0.00 | 0.04 | 0.04 | 75 | 1005.5 |
| 20260508233011 | 44 | 197 | 0.0 | 0.0 | 0.00 | 0.04 | 0.04 | 74 | 1005.4 |
| 20260508231509 | 44 | 197 | 0.0 | 0.0 | 0.00 | 0.04 | 0.04 | 74 | 1005.2 |
| 20260508230023 | 45 | 197 | 0.0 | 0.0 | 0.00 | 0.04 | 0.04 | 73 | 1005.1 |
| 20260508224506 | 45 | 196 | 0.0 | 0.0 | 0.00 | 0.04 | 0.04 | 71 | 1004.8 |
| 20260508223006 | 45 | 190 | 0.0 | 0.0 | 0.02 | 0.04 | 0.04 | 70 | 1004.9 |
| 20260508221503 | 46 | 191 | 0.0 | 1.0 | 0.02 | 0.04 | 0.04 | 70 | 1004.6 |
| 20260508220008 | 45 | 166 | 3.0 | 7.0 | 0.02 | 0.16 | 0.04 | 75 | 1004.3 |
| 20260508214502 | 44 | 191 | 0.0 | 1.0 | 0.02 | 0.16 | 0.04 | 72 | 1004.4 |
| 20260508213100 | 49 | 262 | 5.0 | 18.0 | 0.00 | 0.14 | 0.02 | 59 | 1004.5 |
| 20260508211601 | 50 | 246 | 0.0 | 0.0 | 0.00 | 0.14 | 0.02 | 59 | 1004.0 |
| 20260508210113 | 50 | 198 | 0.0 | 0.0 | 0.00 | 0.15 | 0.02 | 56 | 1003.8 |
| 20260508204556 | 51 | 188 | 0.0 | 6.0 | 0.00 | 0.15 | 0.02 | 54 | 1003.6 |
| 20260508203054 | 50 | 184 | 0.0 | 8.0 | 0.00 | 0.15 | 0.02 | 57 | 1003.4 |
| 20260508201555 | 49 | 182 | 1.0 | 8.0 | 0.00 | 0.15 | 0.02 | 62 | 1003.3 |
| 20260508200056 | 50 | 194 | 0.0 | 6.0 | 0.00 | 0.15 | 0.02 | 63 | 1003.5 |
| 20260508194552 | 50 | 185 | 2.0 | 8.0 | 0.00 | 0.15 | 0.02 | 61 | 1003.4 |
| 20260508193054 | 50 | 198 | 0.0 | 0.0 | 0.00 | 0.15 | 0.02 | 60 | 1003.4 |
| 20260508191552 | 48 | 186 | 0.0 | 0.0 | 0.01 | 0.15 | 0.02 | 64 | 1003.4 |
| 20260508184611 | 44 | 169 | 0.0 | 1.0 | 0.01 | 0.15 | 0.02 | 72 | 1003.3 |
| 20260508183050 | 45 | 192 | 0.0 | 7.0 | 0.01 | 0.15 | 0.02 | 69 | 1003.6 |
| 20260508181559 | 47 | 281 | 6.0 | 15.0 | 0.00 | 0.14 | 0.01 | 61 | 1003.5 |
| 20260508180047 | 49 | 258 | 0.0 | 5.0 | 0.00 | 0.14 | 0.01 | 60 | 1003.3 |
| 20260508174547 | 52 | 196 | 0.0 | 7.0 | 0.00 | 0.14 | 0.01 | 51 | 1002.9 |
| 20260508173049 | 50 | 205 | 0.0 | 10.0 | 0.00 | 0.14 | 0.01 | 53 | 1002.8 |
| 20260508171545 | 48 | 184 | 1.0 | 6.0 | 0.00 | 0.14 | 0.01 | 55 | 1002.7 |
| 20260508170045 | 51 | 284 | 4.0 | 12.0 | 0.00 | 0.14 | 0.01 | 46 | 1002.7 |
| 20260508164557 | 52 | 301 | 3.0 | 10.0 | 0.00 | 0.14 | 0.01 | 42 | 1002.7 |
| 20260508163043 | 53 | 317 | 4.0 | 9.0 | 0.00 | 0.14 | 0.01 | 46 | 1002.6 |
| 20260508161546 | 52 | 327 | 0.0 | 0.0 | 0.00 | 0.14 | 0.01 | 50 | 1002.8 |
| 20260508160038 | 51 | 305 | 3.0 | 11.0 | 0.00 | 0.14 | 0.01 | 46 | 1002.8 |
| 20260508154538 | 50 | 327 | 2.0 | 10.0 | 0.00 | 0.14 | 0.01 | 50 | 1003.0 |
| 20260508153034 | 49 | 272 | 4.0 | 9.0 | 0.00 | 0.14 | 0.01 | 55 | 1003.2 |
| 20260508151534 | 48 | 322 | 3.0 | 9.0 | 0.00 | 0.14 | 0.01 | 57 | 1003.4 |
| 20260508150036 | 48 | 244 | 1.0 | 9.0 | 0.00 | 0.14 | 0.01 | 63 | 1003.3 |
| 20260508144546 | 47 | 360 | 4.0 | 14.0 | 0.00 | 0.14 | 0.01 | 63 | 1003.3 |
| 20260508143034 | 49 | 274 | 6.0 | 12.0 | 0.00 | 0.14 | 0.01 | 59 | 1003.3 |
| 20260508141531 | 49 | 302 | 3.0 | 7.0 | 0.00 | 0.14 | 0.01 | 52 | 1003.2 |
| 20260508140030 | 49 | 246 | 5.0 | 13.0 | 0.00 | 0.14 | 0.01 | 52 | 1003.3 |
| 20260508134536 | 49 | 345 | 6.0 | 13.0 | 0.00 | 0.14 | 0.01 | 57 | 1003.2 |
| 20260508133031 | 48 | 294 | 3.0 | 11.0 | 0.00 | 0.14 | 0.01 | 63 | 1003.3 |
| 20260508131521 | 47 | 281 | 5.0 | 10.0 | 0.00 | 0.14 | 0.01 | 64 | 1003.2 |
| 20260508130017 | 45 | 299 | 5.0 | 11.0 | 0.00 | 0.14 | 0.01 | 71 | 1003.1 |
| 20260508124514 | 44 | 259 | 4.0 | 10.0 | 0.00 | 0.14 | 0.01 | 73 | 1003.2 |
| 20260508123010 | 43 | 311 | 4.0 | 9.0 | 0.00 | 0.14 | 0.01 | 78 | 1003.1 |
| 20260508121508 | 43 | 275 | 2.0 | 8.0 | 0.00 | 0.14 | 0.01 | 81 | 1003.0 |
| 20260508120006 | 42 | 262 | 2.0 | 7.0 | 0.00 | 0.14 | 0.01 | 82 | 1003.0 |
| 20260508114504 | 42 | 276 | 0.0 | 0.0 | 0.01 | 0.14 | 0.01 | 83 | 1002.8 |
| 20260508113002 | 41 | 234 | 0.0 | 0.0 | 0.01 | 0.14 | 0.01 | 83 | 1002.7 |
| 20260508111608 | 41 | 281 | 0.0 | 0.0 | 0.01 | 0.14 | 0.01 | 83 | 1002.7 |
| 20260508110100 | 41 | 303 | 0.0 | 0.0 | 0.01 | 0.14 | 0.01 | 83 | 1002.5 |
| 20260508104556 | 40 | 303 | 0.0 | 0.0 | 0.00 | 0.13 | 0.00 | 83 | 1002.3 |
| 20260508103100 | 40 | 303 | 0.0 | 0.0 | 0.00 | 0.13 | 0.00 | 82 | 1002.2 |
| 20260508101600 | 40 | 303 | 0.0 | 0.0 | 0.00 | 0.13 | 0.00 | 82 | 1002.1 |
| 20260508100052 | 40 | 303 | 0.0 | 0.0 | 0.00 | 0.16 | 0.00 | 82 | 1002.0 |
| 20260508094648 | 40 | 275 | 0.0 | 0.0 | 0.00 | 0.16 | 0.00 | 82 | 1001.8 |
| 20260508093047 | 39 | 254 | 0.0 | 0.0 | 0.00 | 0.16 | 0.00 | 82 | 1001.6 |
| 20260508091554 | 39 | 249 | 0.0 | 0.0 | 0.00 | 0.16 | 0.00 | 82 | 1001.5 |
| 20260508084546 | 39 | 248 | 0.0 | 0.0 | 0.00 | 0.18 | 0.00 | 82 | 1001.3 |
| 20260508083045 | 39 | 248 | 0.0 | 0.0 | 0.00 | 0.18 | 0.00 | 82 | 1001.3 |
| 20260508081545 | 39 | 248 | 0.0 | 0.0 | 0.00 | 0.18 | 0.00 | 82 | 1001.3 |
| 20260508080044 | 39 | 266 | 0.0 | 0.0 | 0.00 | 0.19 | 0.00 | 82 | 1001.2 |
| 20260508074545 | 39 | 266 | 0.0 | 0.0 | 0.00 | 0.19 | 0.00 | 82 | 1001.1 |
| 20260508073046 | 38 | 266 | 0.0 | 0.0 | 0.00 | 0.19 | 0.00 | 81 | 1001.1 |
| 20260508071552 | 38 | 274 | 0.0 | 0.0 | 0.00 | 0.19 | 0.00 | 81 | 1001.0 |
| 20260508070141 | 38 | 269 | 0.0 | 0.0 | 0.00 | 0.28 | 0.00 | 81 | 1001.1 |
| 20260508064540 | 38 | 256 | 0.0 | 0.0 | 0.00 | 0.28 | 0.00 | 81 | 1001.1 |
| 20260508063038 | 38 | 250 | 0.0 | 0.0 | 0.00 | 0.28 | 0.00 | 80 | 1001.2 |
| 20260508061538 | 38 | 247 | 0.0 | 0.0 | 0.00 | 0.28 | 0.00 | 80 | 1001.2 |
| 20260508060036 | 38 | 213 | 0.0 | 0.0 | 0.00 | 0.44 | 0.00 | 79 | 1001.3 |
| 20260508054534 | 38 | 202 | 0.0 | 0.0 | 0.00 | 0.44 | 0.00 | 79 | 1001.4 |
| 20260508053056 | 38 | 202 | 0.0 | 0.0 | 0.00 | 0.44 | 0.00 | 78 | 1001.5 |
| 20260508051530 | 39 | 213 | 0.0 | 0.0 | 0.00 | 0.44 | 0.00 | 78 | 1001.6 |
| 20260508050029 | 39 | 224 | 0.0 | 0.0 | 0.00 | 0.56 | 0.00 | 77 | 1001.7 |